カタログに戻る

TIANQI 18

運用中通信LEO
NORAD 64060·PAYLOAD·🇨🇳 China

打ち上げ May 19, 2025 から Yellow Sea Launch Area

Loading…

次のパス (今後24時間)

TLE

最新Source: Space-Track

元期: Sep 14, 2026, 22:29 UTC

1 64060U 25105C   26257.93694780  .00000077  00000-0  14113-3 0  9994
2 64060  44.9865 342.9174 0009220 100.8941 259.2929 13.99161109 67764

AllMySatでTIANQI 18をリアルタイム追跡

Download on the App Store